Location: Nickerson Gardens
(33.9320°N, 118.2484°W)
Time: 05:41:25
(UTC+00:00)

N. Korean satellite - Pass Details

Date: 24 January 2021
Orbit: 451 x 502 km, 97.2° (Epoch: 08 March)

Event Time Altitude Azimuth Distance (km) Brightness Sun altitude
Rises 13:03:56 0° 15° (NNE) 2,495 10.3 -22.9°
Reaches altitude 10° 13:06:01 10° 19° (NNE) 1,608 9.3 -22.5°
Maximum altitude 13:09:25 59° 100° (E) 529 6.9 -21.8°
Drops below altitude 10° 13:12:46 10° 181° (S) 1,580 9.2 -21.1°
Sets 13:14:48 0° 185° (S) 2,445 10.2 -20.7°
